Weather Service Report


917 
ASUS45 KREV 241210
RWRNV 
NEVADA REGIONAL WEATHER ROUNDUP
NATIONAL WEATHER SERVICE RENO NV
500 AM PDT TUE MAY 24 2016

NOTE: "FAIR" INDICATES FEW OR NO CLOUDS BELOW 12,000 FEET WITH NO
SIGNIFICANT WEATHER AND/OR OBSTRUCTIONS TO VISIBILITY.

NVZ001-003-004-241300-
WESTERN NEVADA
  
CITY           SKY/WX    TMP DP  RH WIND       PRES   REMARKS
RENO           MOCLDY    49  40  71 S7        29.88F                  
6HR MIN TEMP:  49; 6HR MAX TEMP:  51;                                

CARSON CITY    CLOUDY    43  39  87 CALM      29.91F                  
MINDEN         CLOUDY    41  41 100 CALM      29.91F                  
PYRAMID LAKE     N/A     54 N/A N/A N13         N/A                   
FALLON         CLOUDY    49  39  68 W14       29.85S                  
6HR MIN TEMP:  49; 6HR MAX TEMP:  54; 6HR PCP: TRACE;                

LOVELOCK       MOCLDY    48  33  56 SE6       29.83S                  
6HR MIN TEMP:  48; 6HR MAX TEMP:  57;                                

HAWTHORNE      CLOUDY    46  43  87 E6        29.89R                  
$$

NVZ002-CAZ072-073-241300-
NORTHERN AND CENTRAL SIERRA
  
CITY           SKY/WX    TMP DP  RH WIND       PRES   REMARKS
S. LAKE TAHOE  LGT SNOW  33  32  96 CALM      29.92S FOG              
6HR MIN TEMP:  33; 6HR MAX TEMP:  42; 6HR PCP:  0.32;                

TRUCKEE        CLOUDY    37  37 100 CALM      29.92S                  
SQUAW VLY 8000 NOT AVBL                                               
SUSANVILLE     CLEAR     45  39  81 W5        29.89S                  
BLUE CANYON    CLOUDY    42  37  82 N3        29.91F                  
MAMMOTH LAKES  FAIR      28  23  82 CALM      29.91S                  
6HR MIN TEMP:  28; 6HR MAX TEMP:  40;                                

BRIDGEPORT     LGT RAIN  36  33  89 CALM      29.89S                  
$$

NVZ030-031-036-241300-
NORTHERN NEVADA
  
CITY           SKY/WX    TMP DP  RH WIND       PRES   REMARKS
ELKO           MOCLDY    42  38  85 W3        29.84S                  
6HR MIN TEMP:  41; 6HR MAX TEMP:  52; 6HR PCP: TRACE;                

WINNEMUCCA     CLOUDY    43  33  68 CALM      29.84S                  
6HR MIN TEMP:  39; 6HR MAX TEMP:  52;                                

WENDOVER       PTCLDY    52  34  50 W6        29.81R                  
$$

NVZ035-037-241300-
CENTRAL NEVADA
  
CITY           SKY/WX    TMP DP  RH WIND       PRES   REMARKS
ELY            MOCLDY    37  33  85 CALM      29.87S                  
6HR MIN TEMP:  36; 6HR MAX TEMP:  50; 6HR PCP:  0.01;                

EUREKA           N/A     38  34  85 CALM      29.83S                  
6HR MIN TEMP:  36; 6HR MAX TEMP:  46;                                

$$

NVZ013-014-241300-
SOUTH CENTRAL NEVADA
  
CITY           SKY/WX    TMP DP  RH WIND       PRES   REMARKS
TONOPAH        PTCLDY    45  35  68 N9        29.84S                  
6HR MIN TEMP:  44; 6HR MAX TEMP:  52;                                

$$

NVZ017-020-022-241300-
SOUTHERN NEVADA
  
CITY           SKY/WX    TMP DP  RH WIND       PRES   REMARKS
LAS VEGAS      PTCLDY    63  37  38 S9G20     29.71R                  
6HR MIN TEMP:  63; 6HR MAX TEMP:  73;                                

N. LAS VEGAS   CLEAR     64  35  34 S15       29.73R                  
6HR MIN TEMP:  63; 6HR MAX TEMP:  73;                                

NELLIS AFB     CLEAR     64  37  36 S18       29.72S                  
6HR MIN TEMP:  64; 6HR MAX TEMP:  73;                                

HENDERSON      CLEAR     60  38  43 SW21G28   29.74S                  
6HR MIN TEMP:  60; 6HR MAX TEMP:  70;                                

MERCURY        CLEAR     58  33  39 S12       29.75R                  
6HR MIN TEMP:  57; 6HR MAX TEMP:  65;                                

$$
  

Return to Home page


Western Regional Climate Center, wrcc@dri.edu